Regional Weather Roundup
Issued by NWS San Angelo, TX

Home | Current Version | Previous Version | Text Only | Print | Product List | Glossary On
Versions: 1 2 3 4 5 6 7 8 9 10 11 12 13 14 15 16 17 18 19 20 21 22 23 24 25 26 27 28 29 30 31 32 33 34 35 36 37 38 39 40 41 42 43 44 45 46 47 48 49 50
000
ASUS44 KSJT 051510
RWRSJT
WEST CENTRAL TEXAS REGIONAL WEATHER ROUNDUP
NATIONAL WEATHER SERVICE SAN ANGELO TX
1000 AM CDT SUN JUL 05 2015

NOTE: "FAIR" INDICATES FEW OR NO CLOUDS BELOW 12,000 FEET WITH NO
SIGNIFICANT WEATHER AND/OR OBSTRUCTIONS TO VISIBILITY.

TXZ049-054-064>066-071>073-076>078-098-099-113-114-127-128-139-140-
154-155-168>170-051600
...LOCATIONS ACROSS WEST CENTRAL TEXAS...

CITY           SKY/WX    TMP DP  RH WIND       PRES   REMARKS
SAN ANGELO     SUNNY     81  69  67 S12       30.04S
ABILENE        SUNNY     82  69  64 S18       30.04F
DYESS AFB      MOSUNNY   81  69  68 S17G25    30.02F
JUNCTION       MOSUNNY   80  66  62 S15       30.08R
SWEETWATER     MOSUNNY   80  68  67 S15G21    30.08S
BROWNWOOD      SUNNY     82  68  61 S18G25    30.05F
COLEMAN        SUNNY     81  70  68 S13G21    30.06S
SONORA         PTSUNNY   79  68  69 S16       30.11S
OZONA          PTSUNNY   77  66  69 S15G21    30.09S
BRADY          MOSUNNY   81  66  61 N15       30.07S
$$

TEXAS PANHANDLE/OKLAHOMA PANHANDLE

CITY           SKY/WX    TMP DP  RH WIND       PRES   REMARKS
AMARILLO       SUNNY     79  65  62 S18G25    30.06S
BORGER         SUNNY     81  65  58 SW16      30.01F
CANADIAN       MOSUNNY   83  67  58 SW13      29.98S
DALHART        SUNNY     82  63  52 SW20      30.05S
DUMAS          SUNNY     79  63  57 SW20G26   30.03S
GUYMON         NOT AVBL
HEREFORD       SUNNY     79  67  65 MISG      30.08F
PAMPA          SUNNY     80  64  58 SW17      30.03S
PERRYTON       SUNNY     83  62  48 SW17G26   29.99R
$$

SOUTHERN PANHANDLE/SOUTH PLAINS/ROLLING PLAINS

CITY           SKY/WX    TMP DP  RH WIND       PRES   REMARKS
LUBBOCK        MOSUNNY   78  67  68 S14       30.06F
SNYDER         MOSUNNY   78  69  74 S13G18    30.06S
CHILDRESS      SUNNY     84  68  58 SW18      30.00S
SEMINOLE       PTSUNNY   78  66  66 S8        30.08S
$$

PERMIAN BASIN

CITY           SKY/WX    TMP DP  RH WIND       PRES   REMARKS
MIDLAND        MOSUNNY   79  67  66 S15       30.05S
ODESSA         MOSUNNY   78  66  66 S16       30.06R
WINK           SUNNY     81  67  62 SE13      30.01S
$$

FAR WEST/SOUTHWEST MOUNTAINS/TRANS PECOS

CITY           SKY/WX    TMP DP  RH WIND       PRES   REMARKS
ALPINE         PTSUNNY   79  62  56 S10       30.19S
DRYDEN           N/A     79  68  69 SE3       30.03R
EL PASO        MOSUNNY   78  64  61 W5        30.08R
FORT STOCKTON  SUNNY     82  66  58 SE9       30.04R
GUADALUPE PASS SUNNY     75  62  64 SW13      30.19R
MARFA          PTSUNNY  N/A N/A N/A S6        30.19R
PECOS          SUNNY     82  64  54 CALM      30.00S
$$

DALLAS/FORT WORTH METROPLEX

CITY           SKY/WX    TMP DP  RH WIND       PRES   REMARKS
DFW AIRPORT    MOSUNNY   85  72  65 S15       30.03S
FTW MEACHAM    SUNNY     85  72  65 S18       30.03R
DAL-EXECUTIVE  MOSUNNY   83  72  69 S8        30.04S
GRAND PRAIRIE  MOSUNNY   82  73  74 S10G20    30.05S
ADDISON        MOSUNNY   84  72  65 S14G21    30.06S
MESQUITE       PTSUNNY   82  73  74 S12       30.06R
LANCASTER      MOSUNNY   83  72  68 S12       30.06S
$$

NORTH CENTRAL TEXAS

CITY           SKY/WX    TMP DP  RH WIND       PRES   REMARKS
SHRMAN/DENISON SUNNY     85  74  69 S20       30.04R
GAINESVILLE    SUNNY     83  71  66 S16G22    30.05S
BRIDGEPORT     SUNNY     83  72  67 S16G23    30.04S
DENTON         SUNNY     85  72  65 S14G22    30.03S
WAXAHACHIE     MOSUNNY   82  74  76 SW16      30.06S
GRANBURY       CLOUDY    85  71  61 S12G20    30.05S
$$

WESTERN NORTH TEXAS

CITY           SKY/WX    TMP DP  RH WIND       PRES   REMARKS
WICHITA FALLS  SUNNY     84  71  65 SW17      29.99S
VERNON         SUNNY     87  65  47 SW15      30.00S
BRECKENRIDGE   SUNNY     85  68  56 S14G21    30.03S
COMANCHE       SUNNY     82  70  67 S21G26    30.05F
$$

CENTRAL AND SOUTH CENTRAL TEXAS

CITY           SKY/WX    TMP DP  RH WIND       PRES   REMARKS
AUSTIN/BERGSTM CLOUDY    79  74  84 S12       30.07S
WACO           MOSUNNY   84  72  67 S21       30.06S
HILLSBORO      MOSUNNY   82  71  70 S15G22    30.06S
TEMPLE         PTSUNNY   81  72  74 S17G23    30.06S
KILLEEN-GRAY   PTSUNNY   80  72  76 S15       30.07R
FORT HOOD      SUNNY     82  72  70 S16       30.06S
GEORGETOWN     CLOUDY    81  72  74 S13G18    30.06S
LAGO VISTA     CLOUDY    80  72  75 S10       30.10S
SAN MARCOS     PTSUNNY   81  73  78 SE7       30.08F
NEW BRAUNFELS  CLOUDY    80  75  84 S13       30.07S
RANDOLPH AFB   PTSUNNY   81  73  78 S12       30.08S
SAN ANTONIO    PTSUNNY   81  73  76 S10       30.08S
STINSON        CLOUDY    80  74  81 S10       30.05S
PLEASANTON     NOT AVBL
LA GRANGE      MOSUNNY   85  78  81 SW9       30.06S
GIDDINGS       MOSUNNY   82  74  77 S14       30.11F
$$

EAST TEXAS

CITY           SKY/WX    TMP DP  RH WIND       PRES   REMARKS
PARIS          MOSUNNY   82  73  74 SW14G21   30.05S
CLARKSVILLE    NOT AVBL
TYLER          MOSUNNY   84  74  71 SW10      30.07S
LONGVIEW       MOSUNNY   87  74  64 SW13      30.06S
PALESTINE      CLOUDY    83  76  79 S8        30.09S
NACOGDOCHES    PTSUNNY  N/A N/A N/A SW6       30.08S
$$

TEXAS HILL COUNTRY AND EDWARDS PLATEAU

CITY           SKY/WX    TMP DP  RH WIND       PRES   REMARKS
LLANO          MOSUNNY   82  70  65 S13G18    30.10F
HORSESHOE BAY  FAIR      82  71  69 S12G21    30.08F
KERRVILLE      CLOUDY    76  71  84 S14       30.11S
FREDERICKSBRG  MOSUNNY   77  67  71 S15       30.10S
ROCKSPRINGS    MOSUNNY   77  66  69 SE16G23   30.11S HAZE
HONDO          CLOUDY    78  72  81 SE16      30.09R
UVALDE         MOSUNNY   78  72  79 S14G20    30.05F
DEL RIO        PTSUNNY   80  69  69 SE9G18    30.01R
$$

SOUTHEAST TEXAS

CITY           SKY/WX    TMP DP  RH WIND       PRES   REMARKS
COLLEGE STN    MOSUNNY   84  76  76 S10       30.08S
CALDWELL       PTSUNNY   82  77  83 S10G18    30.10S
CROCKETT       MOSUNNY   84  81  89 SW9       30.11S
BRENHAM        MOSUNNY   86  77  75 S9        30.08S
HUNTSVILLE     SUNNY     85  76  74 S13G21    30.08F
CONROE         MOSUNNY   84  75  74 S10       30.08F
HOUSTON BUSH   MOSUNNY   86  75  69 S8        30.08R
HOUSTON HOBBY  PTSUNNY   86  76  71 S12       30.07S
PERLAND        MOSUNNY   86  75  69 S9        30.10R
WHARTON        MOSUNNY   84  77  78 S12       30.08S
$$

THE UPPER TEXAS COAST

CITY           SKY/WX    TMP DP  RH WIND       PRES   REMARKS
ORANGE         MOSUNNY   86  74  67 S15       30.10R
PORT ARTHUR    MOSUNNY   87  79  76 S10       30.08R
GALVESTON      SUNNY     87  78  74 S14       30.09S
ANGLETON       PTSUNNY   87  77  72 S14       30.07S
BAY CITY       MOSUNNY   87  77  72 S13G18    30.07F
$$

TEXAS COASTAL BEND, RIO GRANDE PLAINS DEEP SOUTH TEXAS

CITY           SKY/WX    TMP DP  RH WIND       PRES   REMARKS
VICTORIA       PTSUNNY   83  77  82 S9        30.07R
BEEVILLE       PTSUNNY   84  79  84 S14G21    30.06R
ROCKPORT       LGT RAIN  87  77  72 S10G17    30.05R
PORT ARANSAS   CLOUDY    84  78  81 S9        30.05R
PORT LAVACA    PTSUNNY   85  77  77 SE13      30.07R
CORPUS CHRISTI PTSUNNY   86  74  67 S18       30.04R
KINGSVILLE NAS CLOUDY    85  78  80 SE17G25   30.03R
COTULLA        LGT RAIN  82  73  74 SE15      30.04R
LAREDO         PTSUNNY   82  72  72 SE15      30.02S
BROWNSVILLE    PTSUNNY   86  76  71 SE23G31   30.04R
PORT ISABEL    PTSUNNY   85  76  74 SE22G31   30.03R HAZE
HEBBRONVILLE     N/A     80  74  79 SE15      30.03S
MCALLEN        CLOUDY    86  77  74 SE15      30.02R
WESLACO        PTSUNNY   85  75  70 S18G28    30.01S HAZE
FALFURRIAS     CLOUDY    84  76  76 SE13G21   30.02S
EDINBURG       CLOUDY    85  76  74 SE13G21   30.02S
$$


USA.gov is the U.S. government's official web portal to all federal, state and local government web resources and services.